WS6A-13 Weather Reports


time (UTC)temp
F
wind
direction
speed
knots
gust
knots
rain 1hr
in
rain 24hr
in
rain mn
in
humidity
%
barometer
mb
20260904170004 93 103 0.9 6.1 0.00 0.00 0.00 63 1013.4
20260904163004 93 58 0.9 5.2 0.00 0.00 0.00 64 1013.5
20260904161504 92 215 0.0 2.6 0.00 0.00 0.00 68 1013.5
20260904160004 91 198 0.9 5.2 0.00 0.00 0.00 68 1013.7
20260904154504 90 111 0.0 5.2 0.00 0.00 0.00 72 1013.7
20260904153004 89 84 0.0 2.6 0.00 0.00 0.00 73 1013.6
20260904151504 88 9 0.9 5.2 0.00 0.00 0.00 72 1013.5
20260904150004 87 50 0.0 4.3 0.00 0.00 0.00 74 1013.5
20260904144504 86 121 0.0 4.3 0.00 0.00 0.00 75 1013.5
20260904143004 84 60 0.0 0.0 0.00 0.00 0.00 79 1013.4
20260904141503 83 59 0.0 0.0 0.00 0.00 0.00 82 1013.4
20260904140004 81 59 0.0 0.9 0.00 0.00 0.00 86 1013.3
20260904134504 79 60 0.0 0.9 0.00 0.00 0.00 90 1013.6
20260904133004 78 49 0.0 0.0 0.00 0.00 0.00 93 1013.5
20260904130004 76 49 0.0 0.0 0.00 0.00 0.00 96 1013.6
20260904124504 76 49 0.0 0.0 0.00 0.00 0.00 96 1013.7
20260904123005 74 49 0.0 0.0 0.00 0.00 0.00 96 1013.6
20260904121504 74 49 0.0 0.0 0.00 0.00 0.00 95 1013.5
20260904120004 73 49 0.0 0.0 0.00 0.00 0.00 95 1013.4
20260904113004 73 49 0.0 0.0 0.00 0.00 0.00 94 1013.1
20260904111504 73 49 0.0 0.0 0.00 0.00 0.00 93 1012.8
20260904110003 73 49 0.0 0.0 0.00 0.00 0.00 93 1012.6
20260904104504 73 49 0.0 0.0 0.00 0.00 0.00 93 1012.2
20260904103004 73 49 0.0 0.0 0.00 0.00 0.00 93 1012.2
20260904101503 73 49 0.0 0.0 0.00 0.00 0.00 93 1012.2
20260904100004 73 49 0.0 0.0 0.00 0.00 0.00 93 1012.4
20260904094503 73 49 0.0 0.0 0.00 0.00 0.00 93 1012.2
20260904093004 73 49 0.0 0.0 0.00 0.00 0.00 93 1012.2
20260904091504 74 49 0.0 0.0 0.00 0.00 0.00 93 1012.2
20260904090004 74 49 0.0 0.0 0.00 0.00 0.00 93 1012.3
20260904084504 74 49 0.0 0.0 0.00 0.00 0.00 92 1012.3
20260904083004 74 49 0.0 0.0 0.00 0.00 0.00 92 1012.3
20260904081504 74 49 0.0 0.0 0.00 0.00 0.00 92 1012.2
20260904080004 74 49 0.0 0.0 0.00 0.00 0.00 92 1012.4
20260904074503 74 49 0.0 0.0 0.00 0.00 0.00 92 1012.4
20260904073004 74 49 0.0 0.0 0.00 0.00 0.00 91 1012.6
20260904071503 74 49 0.0 0.0 0.00 0.00 0.00 91 1012.7
20260904064504 75 49 0.0 0.0 0.00 0.00 0.00 91 1012.9
20260904063004 75 49 0.0 0.0 0.00 0.00 0.00 90 1013.0
20260904060004 75 49 0.0 0.0 0.00 0.00 0.00 90 1013.1
20260904053004 75 49 0.0 0.0 0.00 0.00 0.00 89 1013.1
20260904051504 76 49 0.0 0.0 0.00 0.00 0.00 89 1013.1
20260904050004 76 49 0.0 0.0 0.00 0.00 0.00 89 1013.0
20260904044503 76 49 0.0 0.0 0.00 0.00 0.00 89 1013.1
20260904043004 76 49 0.0 0.0 0.00 0.00 0.00 89 1013.0
20260904041504 76 49 0.0 0.0 0.00 0.00 0.00 88 1013.0
20260904034503 77 49 0.0 0.0 0.00 0.00 0.00 88 1012.9
20260904033004 77 49 0.0 0.0 0.00 0.00 0.00 87 1012.8
20260904023004 78 49 0.0 0.0 0.00 0.00 0.00 87 1013.0
20260904021504 78 49 0.0 0.0 0.00 0.00 0.00 87 1012.9
20260904014504 79 49 0.0 0.0 0.00 0.00 0.00 85 1012.9
20260904013004 79 49 0.0 0.0 0.00 0.00 0.00 84 1013.0
20260904011504 80 49 0.0 0.0 0.00 0.00 0.00 84 1013.0
20260904004504 81 49 0.0 0.0 0.00 0.00 0.00 82 1012.9
20260904003004 82 49 0.0 0.0 0.00 0.00 0.00 81 1012.6
20260904001503 83 49 0.0 0.0 0.00 0.00 0.00 79 1012.7
20260903234504 85 49 0.0 0.0 0.00 0.00 0.00 77 1012.4
20260903231504 87 49 0.0 0.0 0.00 0.00 0.00 74 1012.3
20260903224504 88 49 0.0 0.0 0.00 0.00 0.00 73 1012.2
20260903223004 88 49 0.0 0.9 0.00 0.00 0.00 70 1012.1
20260903221503 89 92 0.0 0.0 0.00 0.00 0.00 70 1012.0
20260903214504 90 146 0.0 0.0 0.00 0.00 0.00 67 1011.4
20260903213003 91 157 0.0 4.3 0.00 0.00 0.00 64 1011.3
20260903204504 91 77 0.0 4.3 0.00 0.00 0.00 63 1011.6
20260903203004 91 83 0.0 0.0 0.00 0.00 0.00 65 1011.9
20260903200022 93 82 0.0 1.7 0.00 0.00 0.00 61 1012.3
20260903194504 94 292 0.9 6.1 0.00 0.00 0.00 58 1012.5
20260903193004 94 49 0.0 4.3 0.00 0.00 0.00 61 1012.7
20260903191503 93 158 0.0 5.2 0.00 0.00 0.00 63 1012.9
20260903184504 93 318 0.9 4.3 0.00 0.00 0.00 61 1013.1
20260903183004 93 61 0.9 2.6 0.00 0.00 0.00 61 1013.2
20260903181504 93 28 0.9 4.3 0.00 0.00 0.00 61 1013.3
20260903173004 94 181 0.9 2.6 0.00 0.00 0.00 65 1013.7